www.pogodaiklimat.ru

Погода и климат >> Архив погоды >> Россия >> Кемеровская область >> Центральный Рудник


ПОГОДА в Центральном Руднике

  • Прогноз погоды в Центральном Руднике
  • Монитор погоды в Центральном Руднике

АРХИВ ПОГОДЫ в Центральном Руднике

Время (UTC), дата Ветер
(напр.,м/с)
 
Видим.   Явления Облачность Т
(С)
Тd
(С)
f
(%)
Тe
(С)
Тes
(С)
Комфортность P
(гПа)
Po
(гПа)
Тmin
(С)
Tmax
(С)
R
(мм)
R24
(мм)
S
(см)
21 19.03 штиль 0 20 км слаб. ливневой снег 9/5 600 м
[Cb cap Ac As]
-10.1 -11.7 88 -10 -10 1033.7 969.3
00 20.03 С 1 20 км слаб. ливневой снег 10/4 600 м
[Cb cap Ac As Ci fib]
-10.5 -12.3 87 -13 -13 1035.0 970.5 -11.0 0.2 141
03 20.03 штиль 0 20 км слаб. ливневой снег 10/6 600 м
[Cb cap Ac As Ci fib]
-6.0 -8.8 81 -7 -6 1035.0 971.5
06 20.03 З 1 20 км слаб. ливневой снег 10/5 600 м
[Cb cap Ac und]
-2.7 -8.6 64 -5 -3 1034.5 971.8
09 20.03 СЗ 1 50 км {ливн. осадки} 10/4 600 м
[Cb cap Ac und]
-2.6 -9.6 59 -4 -3 1034.3 971.6
12 20.03 ЮЗ 2 50 км {ливн. осадки} 10/5 600 м
[Cb cap Ac As Ci fib]
-3.7 -8.0 72 -8 -8 1035.0 972.1 -2.2 0.3
15 20.03 Ю 1 50 км 10/5 600 м
[Cb cap Ac As Ci fib]
-4.8 -8.7 74 -7 -7 1035.4 972.2
18 20.03 ЮВ 1 50 км 8/3 600 м
[Cb cap Ac trans Ci fib]
-7.1 -9.5 83 -9 -9 1035.4 971.7
21 20.03 Ю 1 50 км 9/3 600 м
[Cb cap Ac trans]
-10.7 -12.3 88 -13 -13 1035.8 971.2
00 21.03 штиль 0 50 км 3/1 1000 м
[Sc Ac lent Ci fib]
-12.5 -14.2 87 -13 -13 1036.1 971.0 -13.8 141
03 21.03 штиль 0 50 км 3/0
[Ci fib]
-4.9 -10.2 66 -6 -1 1034.8 971.6
06 21.03 ЮВ 1 50 км 4/3 1000 м
[Cu hum Ci fib]
+3.1 -9.1 40 +2 +9 1032.1 970.8
09 21.03 С 1 50 км 1/0
[Ci fib]
+3.2 -9.5 39 +3 +7 1030.7 969.5
12 21.03 З 1 50 км ясно +2.2 -9.3 42 +1 +1 1030.1 968.7 +4.5
15 21.03 Ю 1 50 км ясно -4.1 -9.1 68 -6 -6 1030.9 968.1
18 21.03 штиль 0 50 км ясно -8.2 -10.6 83 -9 -9 1031.1 967.3
21 21.03 В 1 50 км ясно -6.6 -9.4 80 -9 -9 1029.1 965.9
00 22.03 ЮВ 1 50 км 1/0
[Ci fib]
-6.2 -11.0 69 -8 -8 1028.5 965.4 -8.7 139
03 22.03 Ю 4 50 км 4/0
[Ci fib]
-0.4 -10.2 48 -5 -3 1026.9 965.1
06 22.03 ЮЗ 7-12
{12}
50 км 5/0
[Ci fib]
+3.6 -11.3 33 -1 +1 1024.4 963.7
09 22.03 ЮЗ 6-12
{13}
50 км позёмок 8/0
[Ci fib]
+5.5 -10.4 31 +2 +3 1023.1 962.8
12 22.03 ЮЗ 4
{13}
50 км {метель} 9/0
[Ac As Ci fib]
+4.7 -9.4 35 +1 +1 1022.0 961.7 +5.7
15 22.03 Ю 1 50 км 8/0
[Ac lent Ci fib]
+1.6 -9.7 43 +1 +1 1022.6 961.5
18 22.03 ЮЗ 4 50 км 9/0
[Ac As Ci fib]
+0.1 -10.4 45 -5 -5 1022.9 961.5
21 22.03 ЮЗ 2 50 км 8/0
[Ac As Ci fib]
-2.7 -10.3 56 -6 -6 1023.5 961.5
00 23.03 Ю 2 50 км 6/3 1000 м
[Sc Ac As Ci fib]
-3.6 -10.1 61 -7 -7 1023.6 961.4 -4.1 138
03 23.03 Ю 5 50 км 8/3 1000 м
[Sc Ac trans Ci fib]
+0.1 -9.4 49 -5 -4 1023.0 961.7 -5.6
06 23.03 ЮЗ 4 50 км 6/3 1000 м
[Sc Ac trans Ci fib]
+5.0 -12.3 27 +2 +5 1021.2 960.9
09 23.03 ЮЗ 4 50 км 4/3 1000 м
[Sc Ac trans Ci fib]
+6.3 -12.5 25 +4 +6 1019.7 959.8
12 23.03 З 1 50 км 9/4 1000 м
[Sc Ac As Ci fib]
+4.2 -10.9 32 +4 +4 1019.7 959.4 +6.4
15 23.03 Ю 2 50 км 10/4 1000 м
[Sc Ac As Ci fib]
+3.1 -9.2 40 +1 +1 1019.6 959.1
18 23.03 Ю 1 50 км 8/3 1000 м
[Sc Ac trans Ci fib]
-0.4 -7.5 59 -2 -2 1019.7 958.4
21 23.03 штиль 0 50 км 8/4 1000 м
[Sc Ac trans Ci fib]
-3.0 -8.1 68 -4 -4 1019.9 958.0
00 24.03 Ю 2 50 км 9/3 1000 м
[Sc Ac As Ci fib]
-1.6 -8.6 59 -5 -5 1018.8 957.3 -4.0 135
03 24.03 Ю 4 50 км 9/3 600 м
[Cb cap Ac As Ci fib]
+2.0 -8.3 46 -2 -1 1018.1 957.4
06 24.03 ЮЗ 4 50 км 10/4 600 м
[Cb cap Ac As Ci fib]
+3.3 -8.6 41 -1 +1 1017.5 957.1
09 24.03 ЮЗ 6-11
{11}
50 км 9/3 600 м
[Cb cap Ac As Ci fib]
+4.0 -5.3 51 -1 -0 1017.1 956.9
12 24.03 ЮЗ 3
{12}
50 км 10/5 600 м
[Cb cap Ac As Ci fib]
+2.4 -2.6 70 -1 -1 1017.5 957.0 +4.3
15 24.03 Ю 2 50 км 10/5 600 м
[Cb cap Ac As Ci fib]
+0.8 -1.7 83 -3 -3 1018.0 957.1
18 24.03 З 1 50 км 10/5 600 м
[Cb cap Ac As Ci fib]
+0.3 -1.7 86 -2 -2 1017.9 956.9
21 24.03 штиль 0 50 км 9/4 600 м
[Cb cap Ac As Ci fib]
-0.8 -2.2 90 -2 -2 1018.5 957.3
00 25.03 СЗ 1 20 км слаб. ливневой снег 10/6 600 м
[Cb cap Ac und]
-1.3 -2.3 93 -4 -4 1020.0 958.6 -1.3 0.2 134
03 25.03 С 2 50 км {ливн. осадки} 9/6 600 м
[Cb cap Ac As Ci fib]
-0.4 -3.6 79 -4 -3 1022.1 960.7 -1.4
06 25.03 СВ 4 50 км {ливн. осадки} 9/5 600 м
[Cb cap Ac As Ci fib]
+0.8 -6.0 60 -4 -2 1024.0 962.8
09 25.03 С 3 50 км 9/5 600 м
[Cb cap Ac As]
+1.0 -7.8 52 -3 -2 1025.7 964.4
12 25.03 С 2 50 км 9/5 600 м
[Cb cap Ac As Ci fib]
+0.2 -9.0 50 -3 -3 1028.0 966.3 +1.9 0.2
15 25.03 СВ 2 50 км 8/3 600 м
[Cb cap Ac trans Ci fib]
-2.5 -11.2 51 -6 -6 1030.3 967.9
18 25.03 штиль 0 50 км 8/3 1000 м
[Sc Ac trans Ci fib]
-5.1 -10.9 64 -6 -6 1031.8 968.7
21 25.03 штиль 0 50 км 3/0
[Ac trans Ci fib]
-7.9 -11.0 78 -8 -8 1033.0 969.2
00 26.03 штиль 0 50 км ясно -9.8 -11.6 87 -10 -10 1034.6 970.3 -9.9 133
03 26.03 В 2 50 км ясно 0.0 -9.6 48 -3 +1 1033.4 971.4
06 26.03 В 1 50 км 3/3 1000 м
[Cu hum]
+3.3 -12.0 32 +3 +10 1032.3 971.0
09 26.03 ЮВ 1 50 км 1/1 1000 м
[Cu hum]
+5.1 -12.2 27 +5 +10 1030.7 970.0
12 26.03 В 1 50 км ясно +3.5 -12.1 31 +3 +3 1030.2 969.1 +5.6
15 26.03 СВ 1 50 км ясно -2.0 -10.1 54 -4 -4 1030.7 968.4
18 26.03 В 1 50 км ясно -2.8 -10.2 57 -4 -4 1029.4 967.0

 

Местоположение метеостанции Центральный Рудник (Кемеровская область, Россия): широта 55.20 долгота 87.65 высота над уровнем моря 498 м.

В архиве по умолчанию представлена погода в Центральном Руднике за последнюю неделю. Архивные данные за месяц целиком и за предыдущие месяцы, начиная с января 2011 года, Вы можете получить, выбрав интересующий диапазон дат из раскрывающегося списка и нажав кнопку "Ввод!".


*Определитесь, кто Вы:
робот инопланетянин человек

Внимание! Время в таблицах - всемирное. Для получения местного времени необходимо прибавить поправку, которая равна 7 ч.

Смотрите также архив погоды в соседних городах и на ближайших метеорологических станциях:

Погода в Крапивино (Кемеровская область, Россия) (57 км)
Погода в Тисуле (Кемеровская область, Россия) (74 км)
Погода в Ненастной (Хакасия, Россия) (90 км)
Погода в Кемерово (Кемеровская область, Россия) (91 км)
Погода в Кемерово АМС (Кемеровская область, Россия) (94 км)
Погода в Барзасе (Кемеровская область, Россия) (103 км)
Погода в Шарыпово (Красноярский край, Россия) (105 км)
Погода в Ленинск-Кузнецком (Кемеровская область, Россия) (108 км)
Погода в Мариинске (Кемеровская область, Россия) (109 км)
Погода в Тяжине (Кемеровская область, Россия) (116 км)

Пояснения к столбцам:

Ветер - указаны скорость ветра в м/с - средняя за 10 мин, порывы в срок и между сроками (в фигурных скобках) и направление, откуда дует ветер: С - северный, СВ - северо-восточный, В - восточный, ЮВ - юго-восточный, Ю - южный, ЮЗ - юго-западный, З - западный, СЗ - северо-западный.
Видимость - горизонтальная дальность видимости в метрах или километрах. При видимости от 1 до 10 км при отсутствии осадков обычно наблюдается дымка, при ухудшении видимости до 1 км и менее - туман. В сухую погоду видимость может ухудшаться дымом, пылью или мглою.
Явления - указаны атмосферные явления, наблюдавшиеся в срок или в последний час перед сроком; фигурными скобками обозначены явления, наблюдавшиеся между сроками (за 1-3 часа до срока); квадратными скобками обозначены град или гололедные отложения с указанием их диаметра в мм.
Облачность - указаны через наклонную черту общая и нижняя облачность в баллах и высота нижней границы облаков в метрах; квадратными скобками обозначены формы облаков: Ci - перистые, Cs - перисто-слоистые, Cc - перисто-кучевые, Ac - высококучевые, As - высокослоистые, Sc - слоисто-кучевые, Ns - слоисто-дождевые, Cu - кучевые, Cb - кучево-дождевые. Подробнее классификацию облаков см. в Атласе облаков (PDF).
T - Температура воздуха - температура, измеренная на высоте 2 м над землей.
Td - Температура точки росы - температура, при понижении до которой содержащийся в воздухе водяной пар достигнет насыщения.
f - Относительная влажность воздуха - влажноcть воздуха, измеренная на высоте 2 м над землей.
Te - Эффективная температура - температура, которую ощущает одетый по сезону человек в тени. Характеристика душности погоды. При расчете учитывается влияние влажности воздуха и скорости ветра на теплоощущения человека.
Tes - Эффективная температура на солнце - температура, которую ощущает человек, с поправкой на солнечный нагрев. Характеристика знойности погоды. Зависит от высоты солнца над горизонтом, облачности и скорости ветра. Ночью, в пасмурную погоду, а также при ветре 12 м/с и более поправка равна нулю.
P - Атмосферное давление - приведенное к уровню моря атмосферное давление.
Po - Атмосферное давление - измеренное на уровне метеостанции атмосферное давление.
Tmin - Минимальная температура - минимум температуры воздуха на высоте 2 м над землей.
Tmax - Максимальная температура - максимум температуры воздуха на высоте 2 м над землей.
R - Количество осадков - Количество выпавших осадков за период времени, мм. При наведении курсора мыши на число - период времени, за который выпало указанное количество осадков.
R24 - Количество осадков - Количество выпавших осадков за 24 часа, мм.
S - Снежный покров - Высота снежного покрова, см. При наведении курсора мыши на число - состояние снежного покрова и степень покрытия местности в баллах.